星链-30333 (STARLINK-30333 )

导读

STARLINK-30333是美国SpaceX星链星座中的一颗低轨通信卫星,于2023年8月27日发射升空。星链星座旨在为全球提供高速低时延宽带互联网服务,尤其覆盖基础设施匮乏的偏远区域。该卫星运行在约550公里的近地轨道,采用相控阵天线与OFDM传输技术,搭配霍尔推进系统实现轨道机动与自主离轨,最终将在大气层完全销毁,助力星链实现全球互联的网络覆盖目标。

Basic Information
目录编号:
57702
目录名称:
STARLINK-30333
国际标识:
2023-129E
轨道中心:
EARTH
卫星名称:
星链-30333
卫星全名:
星链-30333 (STARLINK-30333 )
卫星状态:
在轨 (已飞行1022 天)
发射日期:
2023-08-27 UTC
国别 :
美国 (US)
星等 :
--
Orbit Information
数据来源 国际轨道数据 AOE轨道数据
星历时间 2026-06-14T23:19:31+0800
8小时前
查看轨道信息
2026-06-08T08:00:00+0800
6天前
查看轨道信息
半长轴 6861.287km 6861.192km
偏心率 0.0001525 0.0001848
轨道倾角 42.996° 43.002°
近地点辐角 282.757° 258.107°
升交点赤经 290.048° 327.545°
平近点角 77.311° 271.914°
近地点 482.103km 481.787km
远地点 484.197km 484.323km
周期 94.269分钟 94.267分钟
每日圈数 15.275465 15.275782
Detailed Information
固有亮度:
5
最大亮度:
0.3
卫星平台:
Starlink v2.0 mini
覆盖范围:
全球
运营商:
太空探索技术公司
运营商所在国:
美国
制造商(研发单位):
太空探索技术公司
制造商所在国:
美国
使用方式:
暂无
Satellite Introduction
星链(Starlink)计划是由太空探索技术公司(SpaceX)提出的一个巨型低轨卫星互联网星座项目,计划在2019年至2024年间在太空搭建由约1.2万颗卫星组成的“星链”网络,其中1584颗将部署在地球上空550千米处的近地轨道,并从2020年开始工作。该卫星仍在工作。
2D Orbit Map
3D Orbit Map
Orbit Altitude Analysis Chart
Orbit Inclination Analysis Chart
Orbit Comprehensive Analysis Chart
View Comprehensive Chart